SCP
1 1 1 1 1 1 1 1 1 1 1 1 1 1 1 1 2 2 2 1 1 1 1 1 1 1 1 1 1 1 1 1 1 1 1 1 1 1 1 1 1 1 1
1 1 1 1 2 2 2 1 1 1 1 1 1 1 1 2 2 2 2 2 1 1 1 1 1 1 1 1 1 1 1 1 1 1 1 1 1 1 1 1 1 1 1
2 2 1 2 2 2 2 2 1 1 1 1 1 1 1 1 1 1 1 1 1 1 1 1 1 1 1 1 1 1 1 1 1 1 1 1 1 1 1 1 1 1 1
2 2 1 2 2 2 2 2 1 1 1 1 1 1 1 1 1 1 1 1 1 1 1 1 1 1 1 1 1 1 1 1 1 1 1 1 1 1 1 1 1 1 1
2 2 2 2 2 2 2 1 1 1 1 1 1 1 1 1 1 1 1 1 1 1 0 0 0 1 1 1 1 1 1 1 1 1 1 1 1 1 1 1 1 1 1
2 2 2 2 2 2 2 2 1 1 1 1 1 1 1 1 1 1 1 1 1 1 1 1 1 1 1 1 1 1 1 1 1 1 1 1 1 1 1 1 1 1 1
3 3 2 2 2 2 2 2 2 1 1 1 1 1 1 1 1 1 1 1 1 1 1 1 1 1 1 1 1 1 1 1 1 1 1 1 1 1 1 1 1 1 1
4 3 3 2 2 2 2 2 2 2 2 1 1 1 1 1 1 1 1 1 1 1 1 1 1 1 1 1 1 1 1 1 1 1 1 1 1 1 1 1 1 1 1
4 3 3 2 2 2 2 2 2 2 2 2 1 1 1 1 1 1 1 1 1 1 1 1 1 1 1 1 1 1 1 1 1 1 1 1 1 1 2 2 1 1 1
4 4 3 3 3 2 2 2 2 2 2 2 1 1 1 1 1 1 1 1 1 1 1 1 1 1 1 1 1 1 2 2 1 1 2 2 2 2 2 2 1 1 1
5 4 4 3 3 2 2 2 2 2 2 1 1 1 1 1 1 1 1 1 1 1 1 1 1 1 1 1 1 1 1 1 1 1 2 2 2 2 2 1 1 1 1
5 5 4 4 3 3 2 2 2 2 2 1 1 1 1 1 1 1 1 2 2 2 2 1 1 1 1 1 1 1 1 1 1 1 2 2 2 2 2 1 1 1 1
5 5 4 4 3 3 3 3 2 2 2 2 1 1 1 1 1 1 2 2 2 2 2 2 2 2 2 2 1 1 1 1 1 1 2 2 3 2 2 2 1 1 2
5 5 4 4 4 4 4 3 3 2 2 2 1 1 2 2 2 2 2 2 2 3 3 2 2 2 2 2 2 1 1 1 1 1 1 2 3 2 2 2 2 2 2
5 5 5 5 5 5 5 4 3 3 2 2 2 2 2 2 2 2 2 2 2 2 3 2 2 2 2 2 2 1 1 1 1 1 1 2 2 2 2 2 2 1 1
6 5 5 6 7 7 6 5 4 3 2 2 2 2 2 2 2 2 2 2 1 2 2 2 2 2 1 1 1 1 1 1 2 2 1 2 2 2 2 2 2 2 2
7 6 6 8 9 9 8 6 5 4 3 2 2 2 2 2 2 2 1 1 1 1 1 1 1 1 1 1 1 1 1 1 1 1 2 2 1 1 2 2 3 3 2
7 7 7 10 12 12 11 9 7 5 4 3 3 2 2 2 1 1 1 1 1 1 1 1 1 1 1 1 1 1 1 1 1 1 1 1 1 1 1 2 2 3 3
8 7 7 9 13 13 12 10 8 6 4 3 2 2 2 2 2 1 1 1 1 0 0 0 0 0 0 0 0 0 0 1 1 1 1 1 1 1 1 1 2 2 3
7 6 6 8 11 11 9 8 6 5 3 2 2 2 2 2 2 2 1 1 1 0 0 0 0 0 0 0 0 0 0 0 0 0 0 1 1 1 1 1 1 2 2
7 7 7 7 7 7 6 6 5 4 3 3 2 2 2 2 2 2 1 1 0 0 0 0 0 0 0 0 0 0 0 0 0 0 0 1 1 1 1 1 1 2 2
8 8 7 6 5 5 5 4 3 3 3 2 2 2 2 2 1 1 1 1 1 0 0 0 0 0 0 0 0 0 0 0 0 0 0 0 0 0 1 1 1 2 2
8 8 6 5 4 4 4 4 3 3 2 2 2 2 1 1 1 1 1 1 1 0 0 0 0 0 0 0 0 0 0 0 0 0 0 0 0 0 0 1 1 1 2
7 6 5 4 4 4 3 4 3 3 2 2 2 2 1 0 0 0 0 0 0 0 0 0 0 0 0 0 0 0 0 0 0 0 0 0 0 0 0 0 1 1 1
6 6 5 4 3 3 3 3 3 2 2 1 1 1 1 0 0 0 0 0 0 0 0 0 0 0 0 0 0 0 0 0 0 0 0 0 0 0 0 0 0 1 1
6 6 5 4 3 3 2 2 2 2 1 1 1 1 1 0 0 0 0 0 0 0 0 0 0 0 0 0 0 0 0 0 0 0 0 0 0 0 0 0 0 0 0
Wind_Speed
7 8 15 16 15 15 15 14 14 13 13 13 13 12 12 12 11 11 11 10 9 8 8 8 7 7 7 7 7 7 7 7 7 7 8 9 9 9 9 10 11 8 11
12 10 16 16 16 15 15 14 13 13 12 12 12 11 11 10 10 9 9 8 7 7 7 6 6 5 5 5 5 5 5 5 4 4 5 6 7 7 8 10 10 7 11
14 11 14 16 16 16 15 14 13 12 12 11 11 10 10 9 8 8 7 6 6 5 5 5 4 4 4 4 3 3 3 3 2 1 2 2 3 7 8 10 11 11 11
14 10 12 17 16 16 15 14 13 12 12 11 10 9 8 8 7 6 6 5 5 4 3 3 3 3 3 2 2 2 2 2 2 1 1 2 3 7 9 10 11 11 10
12 10 13 18 16 16 15 14 13 12 11 10 9 8 8 7 6 5 5 4 3 3 2 2 2 2 1 1 2 2 2 3 4 2 1 2 3 8 10 11 11 11 10
12 10 13 18 17 16 15 14 13 12 11 10 9 8 7 6 5 4 3 3 2 2 1 1 0 0 1 2 2 3 4 4 4 1 1 2 4 9 11 12 11 11 10
11 8 11 16 16 15 14 13 12 11 10 9 8 7 6 5 4 3 2 2 2 1 1 1 1 1 2 3 4 4 5 5 3 1 1 2 5 10 12 13 12 11 11
13 10 10 15 16 15 14 13 12 11 10 9 8 6 5 4 3 3 2 2 2 2 2 2 3 3 4 4 5 5 6 6 3 2 1 2 6 11 13 12 12 11 11
12 10 8 8 11 14 13 12 11 10 9 7 6 5 5 4 3 3 3 3 3 3 4 4 4 5 5 6 6 6 7 7 3 2 3 2 6 10 12 11 11 10 10
10 9 8 6 6 6 7 11 11 10 8 7 6 5 4 3 3 4 4 4 4 4 5 5 5 6 7 7 7 7 8 6 2 2 2 3 7 11 11 11 11 11 10
9 7 7 7 6 6 5 8 8 8 7 5 4 3 2 1 1 2 3 3 4 4 5 6 6 6 6 7 7 7 6 2 2 2 2 4 8 10 11 11 10 10 11
10 8 6 7 6 6 5 4 3 3 3 2 1 1 1 1 1 1 2 3 4 4 4 5 5 5 4 2 4 4 1 2 2 2 2 5 8 10 10 10 10 10 11
10 9 7 7 6 6 3 4 2 2 2 1 1 0 1 0 0 1 1 2 2 3 2 3 3 2 2 1 1 1 2 1 1 2 2 4 6 8 9 9 10 10 10
9 8 7 7 6 5 4 3 3 2 2 1 1 1 1 1 1 1 1 1 1 1 2 2 2 2 2 2 2 2 1 1 1 1 2 5 5 6 7 8 8 9 9
9 8 7 7 6 5 5 3 4 3 3 2 1 1 2 1 1 1 1 1 1 1 1 2 2 2 3 2 2 2 2 1 1 1 2 5 6 6 7 7 8 9 9
8 8 7 7 6 6 4 4 3 3 3 2 2 2 2 2 1 1 1 1 1 1 1 1 1 2 2 2 2 2 2 1 1 2 2 3 5 6 5 6 7 8 8
7 7 7 6 6 6 5 4 4 3 3 3 2 2 3 2 2 1 1 1 1 1 2 1 2 2 2 2 3 3 2 2 2 2 2 2 3 5 6 6 6 6 6
8 7 6 7 6 5 5 4 3 3 3 3 2 2 2 2 2 1 1 1 1 1 2 1 1 2 2 2 2 3 2 2 3 2 2 2 2 2 4 5 5 5 6
7 7 6 6 5 5 4 4 4 3 3 2 2 2 2 2 2 2 1 1 1 1 1 2 2 1 2 3 3 3 2 2 2 2 2 2 2 2 2 3 5 4 5
6 6 7 6 5 5 4 3 3 3 2 2 2 2 2 1 2 2 1 2 2 1 2 2 2 2 1 3 3 3 2 2 1 1 1 1 1 1 1 2 2 2 4
6 7 6 6 5 4 3 2 2 2 1 2 1 1 2 2 2 2 1 1 1 1 1 2 1 2 2 2 1 3 3 2 1 1 1 1 1 1 1 1 1 1 2
6 5 5 5 5 4 3 2 2 2 1 1 1 1 1 2 2 1 1 1 1 1 2 2 1 1 2 1 0 1 2 3 2 2 1 1 1 1 1 1 1 1 1
6 5 4 4 4 3 3 3 3 3 2 2 1 1 1 1 1 1 1 1 1 1 1 2 1 0 2 2 0 1 0 2 3 3 2 1 1 1 1 1 1 1 1
6 6 6 5 4 3 4 4 4 3 2 1 1 1 0 1 1 1 1 1 1 0 1 2 1 1 1 2 2 1 2 2 1 2 3 2 2 2 2 1 1 1 1
6 6 5 5 4 3 4 4 4 3 2 1 1 1 1 1 1 1 1 1 1 1 1 1 2 2 1 1 1 1 1 1 1 2 3 3 2 2 2 2 1 1 1
6 6 5 5 4 4 4 4 4 4 3 3 2 1 0 1 1 2 1 1 1 1 1 2 2 2 1 1 1 1 1 1 2 2 2 2 3 3 1 1 1 1 1
Wind_Direction
146 151 139 133 129 126 123 120 116 112 108 104 100 96 94 93 91 91 92 93 92 91 90 89 86 83 82 82 83 87 90 95 102 114 121 124 126 126 129 132 129 124 128
145 147 138 134 131 129 127 124 122 119 115 111 107 103 99 96 94 92 91 91 91 91 90 87 83 81 79 79 79 83 86 91 99 115 124 127 130 130 134 137 134 137 136
136 140 136 134 133 131 129 128 126 123 121 118 115 111 107 104 102 99 95 91 87 87 89 88 83 78 73 71 72 71 71 70 80 98 117 116 146 144 140 141 143 143 142
135 137 137 135 134 133 132 130 129 128 126 124 122 119 115 112 109 107 104 99 93 88 88 86 86 79 69 57 51 40 28 11 348 325 172 187 191 160 151 148 149 151 151
132 134 140 137 135 135 135 134 133 133 132 131 130 127 124 120 117 115 112 110 106 101 97 94 88 79 57 24 2 341 331 326 323 324 273 207 189 176 167 161 158 157 158
132 134 141 139 138 137 138 138 138 138 138 137 136 134 131 129 127 129 130 131 127 127 136 148 116 63 327 313 317 314 314 319 320 309 245 196 186 186 177 171 168 165 165
133 133 140 140 140 141 141 142 142 143 142 142 141 141 142 142 145 150 158 164 173 191 209 237 260 274 283 292 297 299 305 309 308 303 224 215 197 191 185 179 176 173 173
135 135 140 143 144 144 144 145 145 146 147 148 149 153 156 160 169 178 190 207 219 236 251 258 264 272 278 283 287 290 290 291 295 309 274 219 201 195 191 186 181 179 179
135 137 139 145 147 148 149 150 150 150 150 151 155 163 172 181 194 205 223 233 243 253 262 268 271 274 275 277 280 282 283 283 281 262 264 222 201 196 194 185 180 182 186
134 140 142 142 142 144 150 154 154 154 153 155 161 169 179 198 217 227 240 243 253 266 275 279 279 280 278 279 279 279 280 285 262 246 245 219 203 195 192 189 186 189 194
138 145 147 146 146 148 152 158 157 158 159 161 168 177 184 218 250 253 266 266 272 276 282 287 288 289 287 287 286 284 285 261 233 238 232 212 198 195 191 191 189 192 197
152 157 155 154 154 155 160 148 153 159 159 160 162 189 174 179 241 256 295 289 295 293 295 306 309 306 301 297 297 296 278 252 229 230 227 208 198 197 195 193 194 197 201
157 157 162 159 157 160 155 149 155 150 148 155 141 143 111 106 348 333 351 326 331 331 315 321 317 318 313 305 301 281 258 249 220 235 234 211 203 202 198 195 199 201 204
151 157 160 161 156 155 146 150 147 141 143 142 112 97 102 91 37 21 26 18 13 346 338 333 325 319 311 310 298 282 262 232 204 223 234 220 215 211 208 206 207 207 205
151 156 160 152 147 143 137 142 138 141 142 142 121 107 108 95 56 49 32 36 12 353 341 338 336 325 318 315 302 299 283 239 205 209 243 235 224 224 223 221 219 219 214
156 157 154 148 145 140 137 136 134 136 136 126 115 106 105 104 97 74 19 7 345 338 330 314 316 317 309 306 311 309 289 278 250 226 235 247 237 225 224 228 227 224 218
159 153 150 144 134 132 133 135 129 127 121 115 107 98 102 104 104 96 44 3 337 346 3 352 340 339 333 331 321 314 299 286 263 250 245 238 238 225 221 225 229 226 220
148 142 145 139 130 128 127 122 117 114 112 108 98 90 85 84 92 85 54 356 340 10 15 357 353 341 329 321 310 302 304 295 275 257 242 231 225 232 235 230 228 229 230
142 137 130 123 129 126 118 109 107 106 107 109 98 90 77 65 72 75 45 349 12 28 7 346 356 331 317 316 297 292 305 302 292 279 252 243 224 223 235 236 233 231 235
135 136 133 126 127 119 106 95 87 88 90 92 94 97 87 66 70 70 50 13 23 22 353 349 327 328 307 303 299 303 294 286 293 297 278 265 221 218 231 233 246 249 236
137 142 140 135 132 122 118 121 116 115 112 100 97 84 75 69 68 68 49 25 22 21 327 329 326 331 316 320 339 318 314 307 312 289 287 282 269 249 215 206 216 250 256
148 142 142 137 135 142 148 143 141 136 135 132 97 58 50 68 61 69 66 43 17 14 352 349 2 344 312 338 52 339 332 331 331 318 301 277 290 288 247 199 186 215 257
149 148 143 138 132 135 126 105 93 73 60 50 50 44 5 34 45 59 65 52 6 20 331 323 332 320 295 304 207 154 217 273 306 310 300 288 287 278 276 251 201 214 218
153 150 140 135 132 131 125 129 135 137 148 192 185 161 45 23 39 51 58 58 22 350 324 314 340 285 264 297 306 250 208 211 235 297 308 302 285 261 253 247 223 214 185
144 141 139 132 133 138 134 138 139 133 144 145 119 107 54 7 359 14 35 35 11 333 317 317 319 318 279 245 267 285 281 276 227 222 280 300 306 275 246 233 219 218 200
139 139 139 142 146 149 140 139 147 145 141 136 134 141 47 345 335 335 357 7 355 332 319 312 302 305 290 275 264 249 237 238 247 228 243 274 285 287 280 237 202 205 203